FW2332 Weather Reports


Display with metric or nautical units.
time (UTC)temp
F
wind
direction
speed
MPH
gust
MPH
rain 1hr
in
rain 24hr
in
rain mn
in
humidity
%
barometer
mb
20260507014802 57 104 1.0 0.0 0.00 0.00 0.00 82 1020.8
20260507014348 57 187 2.0 0.0 0.00 0.00 0.00 82 1020.9
20260507014148 57 244 2.0 0.0 0.00 0.00 0.00 82 1021.0
20260507013948 57 156 1.0 0.0 0.00 0.00 0.00 82 1021.0
20260507013748 57 175 4.0 0.0 0.00 0.00 0.00 82 1020.9
20260507012544 58 174 1.0 0.0 0.00 0.00 0.00 81 1021.0
20260507012144 58 237 0.0 0.0 0.00 0.00 0.00 82 1021.0
20260507011151 58 168 1.0 0.0 0.00 0.00 0.00 81 1021.0
20260507011140 58 200 1.0 0.0 0.00 0.00 0.00 82 1021.1
20260507010954 58 176 1.0 0.0 0.00 0.00 0.00 81 1021.0
20260507010339 58 189 1.0 0.0 0.00 0.00 0.00 80 1021.0
20260507010139 58 201 1.0 0.0 0.00 0.00 0.00 80 1020.9
20260507005938 58 199 3.0 0.0 0.00 0.00 0.00 81 1021.0
20260507005136 58 156 2.0 0.0 0.00 0.00 0.00 80 1021.0
20260507004935 58 108 1.0 0.0 0.00 0.00 0.00 80 1021.1
20260507004735 58 199 3.0 0.0 0.00 0.00 0.00 80 1021.0
20260507004334 58 167 3.0 0.0 0.00 0.00 0.00 80 1021.0
20260507004133 58 179 1.0 0.0 0.00 0.00 0.00 80 1021.1
20260507003946 58 212 0.0 0.0 0.00 0.00 0.00 80 1021.0
20260507003533 58 187 1.0 0.0 0.00 0.00 0.00 80 1021.1
20260507003342 58 187 3.0 0.0 0.00 0.00 0.00 79 1021.1
20260507003333 58 186 1.0 0.0 0.00 0.00 0.00 80 1021.1
20260507002731 58 148 1.0 0.0 0.00 0.00 0.00 80 1021.1
20260507002338 58 202 2.0 0.0 0.00 0.00 0.00 81 1021.1
20260507002330 58 122 1.0 0.0 0.00 0.00 0.00 79 1021.1
20260507001928 58 162 0.0 0.0 0.00 0.00 0.00 80 1021.0
20260507001729 58 176 1.0 0.0 0.00 0.00 0.00 81 1021.1
20260507001528 58 199 2.0 0.0 0.00 0.00 0.00 80 1021.1
20260507001339 58 140 0.0 0.0 0.00 0.00 0.00 80 1021.0
20260507000939 58 112 1.0 0.0 0.00 0.00 0.00 80 1021.0
20260507000925 58 188 1.0 0.0 0.00 0.00 0.00 80 1021.1
20260507000525 58 182 0.0 0.0 0.00 0.00 0.00 81 1021.0
20260506235722 58 211 2.0 0.0 0.00 0.00 0.00 81 1021.1
20260506235522 58 185 3.0 0.0 0.00 0.00 0.00 80 1021.0
20260506235321 58 192 3.0 0.0 0.00 0.00 0.00 80 1021.0
20260506235134 58 139 1.0 0.0 0.00 0.00 0.00 80 1021.2
20260506234732 58 106 1.0 0.0 0.00 0.00 0.00 82 1021.1
20260506234332 58 212 2.0 0.0 0.00 0.00 0.00 80 1021.1
20260506233918 58 165 0.0 0.0 0.00 0.00 0.00 80 1021.0
20260506233717 58 198 3.0 0.0 0.00 0.00 0.00 80 1021.1
20260506233116 57 173 1.0 0.0 0.00 0.00 0.00 80 1021.1
20260506232927 58 169 0.0 0.0 0.00 0.00 0.00 79 1021.1
20260506232314 58 168 2.0 0.0 0.00 0.00 0.00 79 1021.0
20260506231913 58 204 2.0 0.0 0.00 0.00 0.00 80 1021.1
20260506231712 58 196 0.0 0.0 0.00 0.00 0.00 80 1021.1
20260506231523 57 206 1.0 0.0 0.00 0.00 0.00 80 1021.1
20260506230911 57 195 1.0 0.0 0.00 0.00 0.00 81 1021.2
20260506230709 57 199 1.0 0.0 0.00 0.00 0.00 80 1021.1
20260506230523 58 179 2.0 0.0 0.00 0.00 0.00 79 1021.2
20260506230509 57 137 1.0 0.0 0.00 0.00 0.00 79 1021.2
20260506230109 58 187 5.0 0.0 0.00 0.00 0.00 80 1021.2
20260506225909 58 135 1.0 0.0 0.00 0.00 0.00 80 1021.2
20260506225708 58 178 2.0 0.0 0.00 0.00 0.00 80 1021.2
20260506225519 57 131 2.0 0.0 0.00 0.00 0.00 79 1021.2
20260506225107 58 194 2.0 0.0 0.00 0.00 0.00 79 1021.2
20260506224905 58 174 2.0 0.0 0.00 0.00 0.00 80 1021.2
20260506224706 58 301 1.0 0.0 0.00 0.00 0.00 81 1021.4
20260506224505 57 229 1.0 0.0 0.00 0.00 0.00 80 1021.3
20260506224304 57 226 2.0 0.0 0.00 0.00 0.00 79 1021.2
20260506224115 57 202 2.0 0.0 0.00 0.00 0.00 79 1021.3
20260506224105 58 240 1.0 0.0 0.00 0.00 0.00 79 1021.3
20260506223714 58 140 1.0 0.0 0.00 0.00 0.00 79 1021.2
20260506223705 58 198 4.0 0.0 0.00 0.00 0.00 79 1021.2
20260506223304 58 210 1.0 0.0 0.00 0.00 0.00 78 1021.1
20260506223103 58 107 1.0 0.0 0.00 0.00 0.00 78 1021.2
20260506222902 58 185 1.0 0.0 0.00 0.00 0.00 79 1021.2
20260506222702 58 90 1.0 0.0 0.00 0.00 0.00 79 1021.1
20260506222501 58 106 1.0 0.0 0.00 0.00 0.00 79 1021.2
20260506222301 57 90 1.0 0.0 0.00 0.00 0.00 79 1021.2
20260506222101 58 165 2.0 0.0 0.00 0.00 0.00 80 1021.2
20260506221900 57 122 1.0 0.0 0.00 0.00 0.00 80 1021.3
20260506221659 57 212 2.0 0.0 0.00 0.00 0.00 79 1021.2
20260506221507 58 173 2.0 0.0 0.00 0.00 0.00 78 1021.3
20260506221459 58 148 1.0 0.0 0.00 0.00 0.00 79 1021.4
20260506221113 58 229 1.0 0.0 0.00 0.00 0.00 80 1021.4
20260506221059 58 117 1.0 0.0 0.00 0.00 0.00 79 1021.3
20260506220257 57 207 1.0 0.0 0.00 0.00 0.00 79 1021.4
20260506220057 57 106 1.0 0.0 0.00 0.00 0.00 79 1021.4
20260506215856 57 180 5.0 0.0 0.00 0.00 0.00 79 1021.4
20260506215656 57 232 3.0 0.0 0.00 0.00 0.00 79 1021.4
20260506215456 57 187 3.0 0.0 0.00 0.00 0.00 80 1021.5
20260506215054 57 148 1.0 0.0 0.00 0.00 0.00 80 1021.5
20260506214854 57 184 6.0 0.0 0.00 0.00 0.00 79 1021.4
20260506214654 57 206 4.0 0.0 0.00 0.00 0.00 78 1021.5
20260506214454 57 170 2.0 0.0 0.00 0.00 0.00 79 1021.6
20260506214253 57 213 2.0 0.0 0.00 0.00 0.00 78 1021.5
20260506214054 57 174 1.0 0.0 0.00 0.00 0.00 79 1021.5
20260506213852 57 204 2.0 0.0 0.00 0.00 0.00 79 1021.5
20260506213653 57 169 3.0 0.0 0.00 0.00 0.00 77 1021.5
20260506213252 57 90 0.0 0.0 0.00 0.00 0.00 77 1021.5
20260506213101 57 197 2.0 0.0 0.00 0.00 0.00 77 1021.4
20260506213051 57 188 4.0 0.0 0.00 0.00 0.00 77 1021.4
20260506212650 57 191 1.0 0.0 0.00 0.00 0.00 77 1021.5
20260506212450 57 149 1.0 0.0 0.00 0.00 0.00 77 1021.5
20260506212249 57 202 3.0 0.0 0.00 0.00 0.00 78 1021.6
20260506212101 57 163 1.0 0.0 0.00 0.00 0.00 77 1021.6
20260506212049 57 320 1.0 0.0 0.00 0.00 0.00 79 1021.6
20260506211859 57 148 2.0 0.0 0.00 0.00 0.00 77 1021.7
20260506211447 57 154 4.0 0.0 0.00 0.00 0.00 77 1021.6
20260506211247 57 281 1.0 0.0 0.00 0.00 0.00 77 1021.5
20260506211057 57 174 2.0 0.0 0.00 0.00 0.00 77 1021.6
20260506211046 57 150 1.0 0.0 0.00 0.00 0.00 77 1021.7
20260506210444 57 178 1.0 0.0 0.00 0.00 0.00 77 1021.7
20260506210244 57 167 2.0 0.0 0.00 0.00 0.00 77 1021.6
20260506210043 57 211 2.0 0.0 0.00 0.00 0.00 78 1021.6
20260506205843 57 199 3.0 0.0 0.00 0.00 0.00 77 1021.5
20260506205642 57 143 1.0 0.0 0.00 0.00 0.00 77 1021.6
20260506205442 57 256 2.0 0.0 0.00 0.00 0.00 77 1021.5
20260506205242 57 311 1.0 0.0 0.00 0.00 0.00 77 1021.5
20260506205041 57 235 3.0 0.0 0.00 0.00 0.00 77 1021.5
20260506204851 57 202 1.0 0.0 0.00 0.00 0.00 76 1021.5
20260506204841 57 240 1.0 0.0 0.00 0.00 0.00 76 1021.5
20260506204440 57 60 0.0 0.0 0.00 0.00 0.00 76 1021.4
20260506204239 57 171 1.0 0.0 0.00 0.00 0.00 76 1021.4
20260506203837 57 170 1.0 0.0 0.00 0.00 0.00 76 1021.4
20260506203650 57 309 1.0 0.0 0.00 0.00 0.00 77 1021.4
20260506203235 57 183 3.0 0.0 0.00 0.00 0.00 76 1021.4
20260506203035 57 199 7.0 0.0 0.00 0.00 0.00 76 1021.5
20260506202835 57 315 1.0 0.0 0.00 0.00 0.00 75 1021.4
20260506202634 58 222 2.0 0.0 0.00 0.00 0.00 76 1021.3
20260506202447 58 170 2.0 0.0 0.00 0.00 0.00 75 1021.4
20260506202434 57 74 2.0 0.0 0.00 0.00 0.00 76 1021.2
20260506202034 58 172 1.0 0.0 0.00 0.00 0.00 75 1021.2
20260506201833 58 126 1.0 0.0 0.00 0.00 0.00 75 1021.4
20260506201232 57 219 0.0 0.0 0.00 0.00 0.00 75 1021.2
20260506201032 58 140 3.0 0.0 0.00 0.00 0.00 76 1021.3
20260506200832 58 315 1.0 0.0 0.00 0.00 0.00 76 1021.4
20260506200431 57 69 1.0 0.0 0.00 0.00 0.00 76 1021.1
20260506200231 57 30 1.0 0.0 0.00 0.00 0.00 77 1021.3
20260506195829 57 169 2.0 0.0 0.00 0.00 0.00 77 1021.4
20260506195629 57 144 0.0 0.0 0.00 0.00 0.00 76 1021.3
20260506195428 57 189 2.0 0.0 0.00 0.00 0.00 76 1021.1
20260506195228 57 163 1.0 0.0 0.00 0.00 0.00 76 1021.2
20260506194827 57 288 1.0 0.0 0.00 0.00 0.00 77 1021.2
20260506194627 57 229 1.0 0.0 0.00 0.00 0.00 76 1021.3
20260506194436 57 224 1.0 0.0 0.00 0.00 0.00 77 1021.2
20260506194426 57 208 4.0 0.0 0.00 0.00 0.00 77 1021.3
20260506194026 57 196 3.0 0.0 0.00 0.00 0.00 76 1021.2
20260506193826 57 296 3.0 0.0 0.00 0.00 0.00 77 1021.1
20260506193425 56 154 4.0 0.0 0.00 0.00 0.00 77 1021.2
20260506193224 56 193 1.0 0.0 0.00 0.00 0.00 78 1021.2
20260506193037 56 224 4.0 0.0 0.00 0.00 0.00 77 1021.4
20260506193024 56 173 1.0 0.0 0.00 0.00 0.00 78 1021.3
20260506192834 56 218 1.0 0.0 0.00 0.00 0.00 78 1021.1
20260506192421 56 108 1.0 0.0 0.00 0.00 0.00 77 1021.1
20260506192230 56 129 1.0 0.0 0.00 0.00 0.00 77 1021.2
20260506192221 56 161 1.0 0.0 0.00 0.00 0.00 77 1021.2
20260506192032 56 209 5.0 0.0 0.00 0.00 0.00 78 1021.3
20260506191620 56 167 1.0 0.0 0.00 0.00 0.00 78 1021.1
20260506191418 56 82 1.0 0.0 0.00 0.00 0.00 78 1021.0
20260506191218 56 195 2.0 0.0 0.00 0.00 0.00 78 1021.1
20260506190617 56 76 1.0 0.0 0.00 0.00 0.00 79 1021.1
20260506190417 56 210 2.0 0.0 0.00 0.00 0.00 78 1021.1
20260506185827 56 175 1.0 0.0 0.00 0.00 0.00 79 1021.0
20260506185816 56 231 1.0 0.0 0.00 0.00 0.00 79 1021.1
20260506185426 55 187 3.0 0.0 0.00 0.00 0.00 80 1021.2
20260506185413 56 192 3.0 0.0 0.00 0.00 0.00 79 1021.1
20260506185012 55 208 4.0 0.0 0.00 0.00 0.00 79 1021.1
20260506184822 56 174 1.0 0.0 0.00 0.00 0.00 78 1021.1
20260506184811 56 204 3.0 0.0 0.00 0.00 0.00 78 1020.9
20260506184411 56 212 3.0 0.0 0.00 0.00 0.00 79 1020.9
20260506184210 56 310 1.0 0.0 0.00 0.00 0.00 80 1021.0
20260506184010 56 172 2.0 0.0 0.00 0.00 0.00 79 1021.1
20260506183809 56 157 4.0 0.0 0.00 0.00 0.00 79 1021.1
20260506183607 56 155 4.0 0.0 0.00 0.00 0.00 79 1021.0
20260506183407 56 135 2.0 0.0 0.00 0.00 0.00 78 1021.2
20260506183207 56 221 2.0 0.0 0.00 0.00 0.00 79 1021.2
20260506183006 56 227 3.0 0.0 0.00 0.00 0.00 80 1021.2
20260506182819 55 204 1.0 0.0 0.00 0.00 0.00 81 1021.2
20260506182206 55 177 1.0 0.0 0.00 0.00 0.00 81 1021.1
20260506182017 55 205 5.0 0.0 0.00 0.00 0.00 82 1021.1
20260506182004 55 177 6.0 0.0 0.00 0.00 0.00 81 1021.2
20260506181604 55 266 1.0 0.0 0.00 0.00 0.00 82 1021.2
20260506181403 54 322 1.0 0.0 0.00 0.00 0.00 83 1021.1
20260506181203 54 169 4.0 0.0 0.00 0.00 0.00 83 1021.2
20260506181003 54 176 7.0 0.0 0.00 0.00 0.00 83 1021.2
20260506180803 54 216 3.0 0.0 0.00 0.00 0.00 83 1021.2
20260506180603 54 209 6.0 0.0 0.00 0.00 0.00 83 1021.1
20260506180401 55 221 3.0 0.0 0.00 0.00 0.00 83 1021.1
20260506180212 55 12 1.0 0.0 0.00 0.00 0.00 83 1021.0
20260506180015 55 141 1.0 0.0 0.00 0.00 0.00 84 1021.2
20260506175601 55 214 1.0 0.0 0.00 0.00 0.00 84 1021.1
20260506175400 55 212 3.0 0.0 0.00 0.00 0.00 83 1021.2
20260506174959 55 264 1.0 0.0 0.00 0.00 0.00 83 1021.2
20260506174758 55 252 3.0 0.0 0.00 0.00 0.00 84 1021.2
20260506174558 55 7 2.0 0.0 0.00 0.00 0.00 84 1020.8
20260506174357 55 258 1.0 0.0 0.00 0.00 0.00 85 1020.9
20260506174157 54 215 1.0 0.0 0.00 0.00 0.00 84 1020.8
20260506173957 54 184 7.0 0.0 0.00 0.00 0.00 84 1020.7
20260506173809 55 132 1.0 0.0 0.00 0.00 0.00 84 1020.5
20260506173757 54 232 1.0 0.0 0.00 0.00 0.00 83 1020.7
20260506173403 55 189 3.0 0.0 0.00 0.00 0.00 84 1020.6
20260506173354 55 200 8.0 0.0 0.00 0.00 0.00 84 1020.5
20260506173007 55 90 1.0 0.0 0.00 0.00 0.00 85 1020.6
20260506172953 55 186 7.0 0.0 0.00 0.00 0.00 85 1020.7
20260506172352 54 195 4.0 0.0 0.00 0.00 0.00 87 1020.6
20260506172152 54 186 3.0 0.0 0.00 0.00 0.00 87 1020.6
20260506171750 54 157 3.0 0.0 0.00 0.00 0.00 88 1020.9
20260506171550 53 188 2.0 0.0 0.00 0.00 0.00 88 1020.9
20260506171348 53 225 3.0 0.0 0.00 0.00 0.00 88 1020.8
20260506171148 53 159 2.0 0.0 0.00 0.00 0.00 89 1020.9
20260506170750 53 250 2.0 0.0 0.00 0.00 0.00 89 1021.1
20260506170547 53 185 7.0 0.0 0.00 0.00 0.00 89 1021.0
20260506170347 54 158 3.0 0.0 0.00 0.00 0.00 89 1020.9
20260506170146 54 194 5.0 0.0 0.00 0.00 0.00 89 1020.9
20260506165946 54 101 2.0 0.0 0.00 0.00 0.00 90 1020.9
20260506165756 54 251 4.0 0.0 0.00 0.00 0.00 88 1020.8
20260506165345 54 167 1.0 0.0 0.00 0.00 0.00 89 1021.0
20260506165145 54 179 3.0 0.0 0.00 0.00 0.00 89 1020.9
20260506164943 54 149 0.0 0.0 0.00 0.00 0.00 89 1021.1
20260506164742 54 215 3.0 0.0 0.00 0.00 0.00 89 1021.1
20260506164555 54 193 3.0 0.0 0.00 0.00 0.00 89 1020.7
20260506164154 54 170 2.0 0.0 0.00 0.00 0.00 89 1020.9
20260506164141 54 191 6.0 0.0 0.00 0.00 0.00 89 1020.8
20260506163951 55 198 2.0 0.0 0.00 0.00 0.00 89 1020.9
20260506163753 55 196 3.0 0.0 0.00 0.00 0.00 89 1020.8
20260506163550 55 344 2.0 0.0 0.00 0.00 0.00 89 1020.5
20260506162939 54 128 1.0 0.0 0.00 0.00 0.00 88 1020.8
20260506162738 55 195 3.0 0.0 0.00 0.00 0.00 88 1020.6
20260506162546 55 220 1.0 0.0 0.00 0.00 0.00 88 1020.8
20260506162537 55 171 1.0 0.0 0.00 0.00 0.00 88 1020.8
20260506162146 55 209 5.0 0.0 0.00 0.00 0.00 89 1020.7
20260506161948 55 182 1.0 0.0 0.00 0.00 0.00 89 1020.6
20260506161536 55 206 2.0 0.0 0.00 0.00 0.00 89 1020.6
20260506161335 54 191 3.0 0.0 0.00 0.00 0.00 90 1020.6
20260506160934 54 202 2.0 0.0 0.00 0.00 0.00 90 1020.8
20260506160733 54 202 5.0 0.0 0.00 0.00 0.00 91 1020.3
20260506160533 54 129 3.0 0.0 0.00 0.00 0.00 91 1020.4
20260506160346 53 198 3.0 0.0 0.00 0.00 0.00 91 1020.1
20260506160332 54 221 3.0 0.0 0.00 0.00 0.00 92 1020.1
20260506155742 54 171 0.0 0.0 0.00 0.00 0.00 91 1020.2
20260506155731 54 175 2.0 0.0 0.00 0.00 0.00 91 1020.2
20260506155341 54 187 2.0 0.0 0.00 0.00 0.00 91 1020.1
20260506155330 54 177 1.0 0.0 0.00 0.00 0.00 91 1019.9
20260506154929 54 207 3.0 0.0 0.00 0.00 0.00 91 1020.0
20260506154728 53 92 1.0 0.0 0.00 0.00 0.00 91 1020.2
20260506154529 53 178 4.0 0.0 0.00 0.00 0.00 91 1020.1
20260506154337 53 143 3.0 0.0 0.00 0.00 0.00 93 1019.9
20260506154328 53 135 1.0 0.0 0.00 0.00 0.00 92 1020.2
20260506153927 53 183 2.0 0.0 0.00 0.00 0.00 93 1020.0
20260506153739 53 201 3.0 0.0 0.00 0.00 0.00 92 1020.1
20260506153726 53 214 2.0 0.0 0.00 0.00 0.00 93 1020.0
20260506153325 53 186 1.0 0.0 0.00 0.00 0.00 93 1020.1
20260506153124 53 128 1.0 0.0 0.00 0.00 0.00 93 1020.2
20260506152923 53 178 2.0 0.0 0.00 0.00 0.00 93 1020.2
20260506152723 53 188 1.0 0.0 0.00 0.00 0.00 94 1020.3
20260506152122 53 184 4.0 0.0 0.00 0.00 0.00 94 1020.6
20260506151922 53 181 4.0 0.0 0.00 0.00 0.00 94 1020.5
20260506151721 53 134 1.0 0.0 0.00 0.00 0.00 94 1020.5
20260506151521 53 187 1.0 0.0 0.00 0.00 0.00 94 1020.3
20260506151119 53 186 1.0 0.0 0.00 0.00 0.00 94 1020.4
20260506150919 53 174 0.0 0.0 0.00 0.00 0.00 94 1020.6
20260506150116 53 171 0.0 0.0 0.00 0.00 0.00 93 1020.3
20260506145916 53 153 1.0 0.0 0.00 0.00 0.00 93 1020.6
20260506145716 53 168 2.0 0.0 0.00 0.00 0.00 93 1020.7
20260506145515 53 208 2.0 0.0 0.00 0.00 0.00 93 1020.6
20260506145315 53 173 1.0 0.0 0.00 0.00 0.00 93 1020.4
20260506144914 53 102 2.0 0.0 0.00 0.00 0.00 93 1020.1
20260506144714 53 184 3.0 0.0 0.00 0.00 0.00 93 1020.2
20260506144525 53 176 1.0 0.0 0.00 0.00 0.00 94 1020.1
20260506144113 53 200 1.0 0.0 0.00 0.00 0.00 94 1019.7
20260506143912 53 142 0.0 0.0 0.00 0.00 0.00 94 1020.0
20260506143711 53 208 1.0 0.0 0.00 0.00 0.00 94 1020.0
20260506143510 53 156 0.0 0.0 0.00 0.00 0.00 94 1020.0
20260506143310 53 208 2.0 0.0 0.00 0.00 0.00 94 1020.1
20260506143110 53 168 3.0 0.0 0.00 0.00 0.00 94 1020.1
20260506142923 53 239 1.0 0.0 0.00 0.00 0.00 95 1020.1
20260506142910 53 186 2.0 0.0 0.00 0.00 0.00 94 1020.1
20260506142319 52 167 1.0 0.0 0.00 0.00 0.00 95 1020.1
20260506142308 52 182 1.0 0.0 0.00 0.00 0.00 95 1020.1
20260506142122 52 189 2.0 0.0 0.00 0.00 0.00 95 1020.1
20260506141708 52 186 1.0 0.0 0.00 0.00 0.00 95 1020.1
20260506141320 52 194 1.0 0.0 0.00 0.00 0.00 95 1020.3
20260506141307 52 225 3.0 0.0 0.00 0.00 0.00 95 1020.2
20260506140705 52 228 2.0 0.0 0.00 0.00 0.00 95 1020.1
20260506140505 52 215 2.0 0.0 0.00 0.00 0.00 95 1020.1
20260506135902 52 161 3.0 0.0 0.00 0.00 0.00 95 1020.1
20260506135702 52 160 1.0 0.0 0.00 0.00 0.00 95 1020.1
20260506135301 52 208 2.0 0.0 0.00 0.00 0.00 95 1020.0
20260506135102 52 203 2.0 0.0 0.00 0.00 0.00 95 1020.0
20260506134900 52 273 1.0 0.0 0.00 0.00 0.00 95 1019.9
20260506133858 53 173 0.0 0.0 0.00 0.00 0.00 94 1020.1
20260506133657 53 134 1.0 0.0 0.00 0.00 0.00 94 1020.1
20260506133309 53 176 1.0 0.0 0.00 0.00 0.00 93 1020.1
20260506132654 53 171 2.0 0.0 0.00 0.00 0.00 92 1020.1
20260506132508 53 199 2.0 0.0 0.00 0.00 0.00 92 1019.9
20260506132053 53 179 1.0 0.0 0.00 0.00 0.00 92 1019.8
20260506131904 53 157 0.0 0.0 0.00 0.00 0.00 92 1020.0
20260506131852 53 179 0.0 0.0 0.00 0.00 0.00 92 1020.0
20260506131451 53 176 1.0 0.0 0.00 0.00 0.00 92 1020.0
20260506130849 53 205 1.0 0.0 0.00 0.00 0.00 92 1019.9
20260506130648 53 166 1.0 0.0 0.00 0.00 0.00 92 1019.8
20260506130448 53 190 4.0 0.0 0.00 0.00 0.00 92 1020.0
20260506130248 53 161 1.0 0.0 0.00 0.00 0.00 92 1019.8
20260506130047 53 177 2.0 0.0 0.00 0.00 0.00 92 1019.9
20260506125245 53 116 0.0 0.0 0.00 0.00 0.00 92 1019.6
20260506124845 53 245 1.0 0.0 0.00 0.00 0.00 91 1019.7
20260506124643 53 161 2.0 0.0 0.00 0.00 0.00 91 1019.6
20260506124040 53 159 1.0 0.0 0.00 0.00 0.00 91 1019.2
20260506123841 53 122 1.0 0.0 0.00 0.00 0.00 91 1019.2
20260506123650 53 180 2.0 0.0 0.00 0.00 0.00 91 1019.5
20260506123640 53 190 3.0 0.0 0.00 0.00 0.00 91 1019.5
20260506123452 53 188 1.0 0.0 0.00 0.00 0.00 91 1019.5
20260506123039 53 200 3.0 0.0 0.00 0.00 0.00 91 1019.5
20260506122838 53 180 2.0 0.0 0.00 0.00 0.00 91 1019.6
20260506122639 53 177 3.0 0.0 0.00 0.00 0.00 91 1019.5
20260506122250 53 196 7.0 0.0 0.00 0.00 0.00 91 1019.6
20260506122238 53 205 2.0 0.0 0.00 0.00 0.00 91 1019.5
20260506121837 53 223 1.0 0.0 0.00 0.00 0.00 91 1019.4
20260506121637 53 199 3.0 0.0 0.00 0.00 0.00 91 1019.5
20260506121235 53 177 0.0 0.0 0.00 0.00 0.00 91 1019.5
20260506121048 53 202 2.0 0.0 0.00 0.00 0.00 91 1019.3
20260506121035 53 80 1.0 0.0 0.00 0.00 0.00 91 1019.4
20260506120633 53 6 2.0 0.0 0.00 0.00 0.00 91 1019.3
20260506120241 53 334 1.0 0.0 0.00 0.00 0.00 91 1019.2
20260506120232 53 172 0.0 0.0 0.00 0.00 0.00 91 1019.1
20260506115832 53 136 1.0 0.0 0.00 0.00 0.00 91 1019.1
20260506115631 53 228 2.0 0.0 0.00 0.00 0.00 91 1019.1
20260506115030 53 212 1.0 0.0 0.00 0.00 0.00 91 1019.2
20260506114829 53 195 2.0 0.0 0.00 0.00 0.00 91 1019.2
20260506114227 53 204 1.0 0.0 0.00 0.00 0.00 91 1019.4
20260506114027 53 202 4.0 0.0 0.00 0.00 0.00 91 1019.0
20260506113827 53 173 4.0 0.0 0.00 0.00 0.00 91 1019.2
20260506113437 53 131 1.0 0.0 0.00 0.00 0.00 92 1019.3
20260506113425 53 199 1.0 0.0 0.00 0.00 0.00 92 1019.4
20260506113037 53 249 1.0 0.0 0.00 0.00 0.00 92 1018.8
20260506113023 53 232 1.0 0.0 0.00 0.00 0.00 92 1019.2
20260506112635 53 181 3.0 0.0 0.00 0.00 0.00 92 1018.8
20260506112622 53 204 3.0 0.0 0.00 0.00 0.00 92 1018.9
20260506112221 53 247 1.0 0.0 0.00 0.00 0.00 92 1019.0
20260506112032 53 196 4.0 0.0 0.00 0.00 0.00 92 1019.0
20260506112021 53 211 1.0 0.0 0.00 0.00 0.00 92 1019.0
20260506111619 53 217 3.0 0.0 0.00 0.00 0.00 91 1018.9
20260506111231 53 99 1.0 0.0 0.00 0.00 0.00 91 1019.0
20260506111218 53 212 2.0 0.0 0.00 0.00 0.00 91 1018.8
20260506110817 53 224 3.0 0.0 0.00 0.00 0.00 91 1019.0
20260506110616 53 193 4.0 0.0 0.00 0.00 0.00 91 1018.9
20260506110415 53 189 4.0 0.0 0.00 0.00 0.00 91 1018.9
20260506110215 53 205 5.0 0.0 0.00 0.00 0.00 91 1018.9
20260506110016 53 230 2.0 0.0 0.00 0.00 0.00 91 1019.0
20260506105813 53 196 2.0 0.0 0.00 0.00 0.00 91 1018.9
20260506105412 53 180 4.0 0.0 0.00 0.00 0.00 91 1018.9
20260506105009 53 179 2.0 0.0 0.00 0.00 0.00 91 1018.9
20260506104609 53 171 1.0 0.0 0.00 0.00 0.00 91 1019.0
20260506104408 53 207 1.0 0.0 0.00 0.00 0.00 91 1018.9
20260506104207 53 172 1.0 0.0 0.00 0.00 0.00 91 1018.9
20260506104016 53 234 0.0 0.0 0.00 0.00 0.00 92 1018.8
20260506103606 53 165 0.0 0.0 0.00 0.00 0.00 92 1018.9
20260506103405 53 194 3.0 0.0 0.00 0.00 0.00 92 1018.9
20260506103205 53 178 2.0 0.0 0.00 0.00 0.00 92 1019.0
20260506103004 53 186 1.0 0.0 0.00 0.00 0.00 92 1019.1
20260506102803 53 209 1.0 0.0 0.00 0.00 0.00 92 1019.0
20260506102616 53 217 2.0 0.0 0.00 0.00 0.00 92 1019.0
20260506102202 53 187 2.0 0.0 0.00 0.00 0.00 92 1018.8
20260506102002 53 218 3.0 0.0 0.00 0.00 0.00 92 1018.8
20260506101802 53 196 2.0 0.0 0.00 0.00 0.00 92 1018.8
20260506101602 53 150 1.0 0.0 0.00 0.00 0.00 93 1018.7
20260506101414 53 179 2.0 0.0 0.00 0.00 0.00 93 1018.7
20260506101402 53 191 6.0 0.0 0.00 0.00 0.00 93 1018.9
20260506101211 53 218 2.0 0.0 0.00 0.00 0.00 93 1018.8
20260506100800 53 218 2.0 0.0 0.00 0.00 0.00 93 1018.6
20260506100600 53 177 1.0 0.0 0.00 0.00 0.00 93 1018.7
20260506100410 53 233 1.0 0.0 0.00 0.00 0.00 93 1018.7
20260506095811 52 231 2.0 0.0 0.00 0.00 0.00 94 1018.7
20260506095357 52 154 0.0 0.0 0.00 0.00 0.00 94 1018.7
20260506095157 52 156 1.0 0.0 0.00 0.00 0.00 94 1018.6
20260506094957 52 191 2.0 0.0 0.00 0.00 0.00 94 1018.8
20260506094808 52 211 3.0 0.0 0.00 0.00 0.00 94 1018.5
20260506094756 52 200 2.0 0.0 0.00 0.00 0.00 94 1018.6
20260506094610 52 164 1.0 0.0 0.00 0.00 0.00 94 1018.6
20260506094155 52 199 3.0 0.0 0.00 0.00 0.00 94 1018.5
20260506093955 52 198 3.0 0.0 0.00 0.00 0.00 94 1018.2
20260506093808 52 201 3.0 0.0 0.00 0.00 0.00 94 1018.3
20260506093754 52 188 3.0 0.0 0.00 0.00 0.00 94 1018.4
20260506093354 52 228 3.0 0.0 0.00 0.00 0.00 94 1018.4
20260506093154 52 187 4.0 0.0 0.00 0.00 0.00 94 1018.3
20260506092953 52 242 4.0 0.0 0.00 0.00 0.00 94 1018.4
20260506092753 52 193 7.0 0.0 0.00 0.00 0.00 94 1018.5
20260506092553 52 179 5.0 0.0 0.00 0.00 0.00 94 1018.3
20260506092351 52 201 4.0 0.0 0.00 0.00 0.00 94 1018.4
20260506092151 52 148 1.0 0.0 0.00 0.00 0.00 94 1018.2
20260506092003 52 210 2.0 0.0 0.00 0.00 0.00 94 1018.3
20260506091952 52 184 4.0 0.0 0.00 0.00 0.00 94 1018.3
20260506091805 52 195 4.0 0.0 0.00 0.00 0.00 93 1018.4
20260506091602 52 247 1.0 0.0 0.00 0.00 0.00 93 1018.4
20260506091405 52 201 1.0 0.0 0.00 0.00 0.00 93 1018.3
20260506090950 52 183 5.0 0.0 0.00 0.00 0.00 93 1018.3
20260506090801 52 153 1.0 0.0 0.00 0.00 0.00 93 1018.2
20260506090750 52 197 5.0 0.0 0.00 0.00 0.00 93 1018.5
20260506090558 52 190 1.0 0.0 0.00 0.00 0.00 93 1018.1
20260506090158 52 221 1.0 0.0 0.00 0.00 0.00 93 1018.2
20260506090147 52 202 3.0 0.0 0.00 0.00 0.00 93 1018.1
20260506085745 52 209 1.0 0.0 0.00 0.00 0.00 93 1018.2
20260506085545 52 213 2.0 0.0 0.00 0.00 0.00 93 1018.2
20260506085345 52 189 2.0 0.0 0.00 0.00 0.00 93 1018.2
20260506085144 52 199 2.0 0.0 0.00 0.00 0.00 93 1018.2
20260506084945 52 194 3.0 0.0 0.00 0.00 0.00 93 1018.0
20260506084744 52 216 1.0 0.0 0.00 0.00 0.00 93 1018.2
20260506084545 52 222 1.0 0.0 0.00 0.00 0.00 93 1018.1
20260506084357 53 192 2.0 0.0 0.00 0.00 0.00 93 1017.9
20260506084345 52 204 1.0 0.0 0.00 0.00 0.00 93 1018.1
20260506083943 53 187 1.0 0.0 0.00 0.00 0.00 93 1017.9
20260506083754 53 194 2.0 0.0 0.00 0.00 0.00 93 1018.0
20260506083743 53 187 1.0 0.0 0.00 0.00 0.00 93 1017.9
20260506083342 53 197 1.0 0.0 0.00 0.00 0.00 93 1018.0
20260506083143 53 200 3.0 0.0 0.00 0.00 0.00 93 1017.9
20260506082942 53 202 1.0 0.0 0.00 0.00 0.00 92 1018.1
20260506082742 53 196 2.0 0.0 0.00 0.00 0.00 92 1018.1
20260506082541 53 169 1.0 0.0 0.00 0.00 0.00 92 1018.1
20260506082140 53 197 0.0 0.0 0.00 0.00 0.00 92 1018.2
20260506081738 53 184 1.0 0.0 0.00 0.00 0.00 92 1018.0
20260506081538 53 191 2.0 0.0 0.00 0.00 0.00 92 1018.1
20260506081337 53 181 1.0 0.0 0.00 0.00 0.00 92 1017.8
20260506080936 53 190 2.0 0.0 0.00 0.00 0.00 92 1017.8
20260506080735 53 190 1.0 0.0 0.00 0.00 0.00 92 1017.8
20260506080535 53 203 3.0 0.0 0.00 0.00 0.00 92 1017.8
20260506080334 53 195 2.0 0.0 0.00 0.00 0.00 92 1017.9
20260506080134 53 188 2.0 0.0 0.00 0.00 0.00 92 1017.7
20260506073327 54 178 1.0 0.0 0.00 0.00 0.00 91 1017.6
20260506073128 54 167 1.0 0.0 0.00 0.00 0.00 91 1017.4
20260506072927 54 180 0.0 0.0 0.00 0.00 0.00 91 1017.4
20260506072527 54 193 1.0 0.0 0.00 0.00 0.00 90 1017.6
20260506071925 54 183 0.0 0.0 0.00 0.00 0.00 90 1017.4
20260506071723 54 189 1.0 0.0 0.00 0.00 0.00 90 1017.3
20260506071523 54 189 1.0 0.0 0.00 0.00 0.00 90 1017.4
20260506070521 55 188 1.0 0.0 0.00 0.00 0.00 89 1017.4
20260506062122 56 201 2.0 0.0 0.00 0.00 0.00 86 1016.9
20260506061510 56 193 1.0 0.0 0.00 0.00 0.00 86 1016.9
20260506061108 56 213 1.0 0.0 0.00 0.00 0.00 86 1017.0
20260506060908 56 206 2.0 0.0 0.00 0.00 0.00 86 1017.0
20260506060708 56 192 2.0 0.0 0.00 0.00 0.00 86 1017.0
20260506060519 57 196 2.0 0.0 0.00 0.00 0.00 86 1017.0
20260506060507 57 209 1.0 0.0 0.00 0.00 0.00 86 1017.0
20260506060107 57 214 1.0 0.0 0.00 0.00 0.00 86 1017.0
20260506051055 58 195 2.0 0.0 0.00 0.00 0.00 85 1016.3
20260506050855 58 211 3.0 0.0 0.00 0.00 0.00 85 1016.3
20260506050707 58 210 4.0 0.0 0.00 0.00 0.00 86 1016.4
20260506050654 58 205 3.0 0.0 0.00 0.00 0.00 85 1016.3
20260506050253 58 190 2.0 0.0 0.00 0.00 0.00 85 1016.3
20260506045100 58 223 2.0 0.0 0.00 0.00 0.00 86 1016.1
20260506045048 58 209 2.0 0.0 0.00 0.00 0.00 86 1016.3
20260506044647 58 198 2.0 0.0 0.00 0.00 0.00 86 1016.3
20260506044446 58 210 2.0 0.0 0.00 0.00 0.00 86 1016.3
20260506044246 58 169 1.0 0.0 0.00 0.00 0.00 85 1016.1
20260506044046 59 217 2.0 0.0 0.00 0.00 0.00 85 1016.1
20260506043846 59 213 2.0 0.0 0.00 0.00 0.00 85 1016.1
20260506043644 59 188 3.0 0.0 0.00 0.00 0.00 85 1016.1
20260506043444 59 220 2.0 0.0 0.00 0.00 0.00 85 1016.1
20260506043244 59 206 1.0 0.0 0.00 0.00 0.00 85 1016.1
20260506043044 59 200 3.0 0.0 0.00 0.00 0.00 85 1016.1
20260506042843 59 186 1.0 0.0 0.00 0.00 0.00 85 1016.1
20260506042655 59 199 2.0 0.0 0.00 0.00 0.00 84 1016.1
20260506042643 59 232 2.0 0.0 0.00 0.00 0.00 84 1016.1
20260506042242 59 183 3.0 0.0 0.00 0.00 0.00 85 1016.1
20260506042042 59 208 1.0 0.0 0.00 0.00 0.00 85 1016.1
20260506041842 59 229 2.0 0.0 0.00 0.00 0.00 85 1016.1
20260506041641 59 211 2.0 0.0 0.00 0.00 0.00 85 1016.0
20260506041441 59 225 1.0 0.0 0.00 0.00 0.00 85 1016.0
20260506041241 59 190 1.0 0.0 0.00 0.00 0.00 85 1016.0
20260506041040 59 229 1.0 0.0 0.00 0.00 0.00 85 1016.0
20260506040840 59 199 1.0 0.0 0.00 0.00 0.00 85 1016.1
20260506040639 59 195 2.0 0.0 0.00 0.00 0.00 84 1016.0
20260506040438 59 201 3.0 0.0 0.00 0.00 0.00 84 1016.0
20260506040237 59 174 1.0 0.0 0.00 0.00 0.00 84 1016.0
20260506040037 59 206 1.0 0.0 0.00 0.00 0.00 84 1015.9
20260506035836 59 201 1.0 0.0 0.00 0.00 0.00 84 1015.9
20260506035635 59 224 2.0 0.0 0.00 0.00 0.00 84 1015.8
20260506035435 59 179 2.0 0.0 0.00 0.00 0.00 84 1016.0
20260506035234 59 187 1.0 0.0 0.00 0.00 0.00 84 1015.9
20260506035034 59 189 2.0 0.0 0.00 0.00 0.00 84 1015.8
20260506034834 59 192 2.0 0.0 0.00 0.00 0.00 84 1015.9
20260506034633 59 188 2.0 0.0 0.00 0.00 0.00 84 1015.8
20260506034433 59 190 2.0 0.0 0.00 0.00 0.00 84 1015.8
20260506034232 59 165 1.0 0.0 0.00 0.00 0.00 84 1015.8
20260506034033 59 191 1.0 0.0 0.00 0.00 0.00 84 1015.8
20260506033833 60 195 2.0 0.0 0.00 0.00 0.00 84 1015.9
20260506033632 60 201 1.0 0.0 0.00 0.00 0.00 83 1015.9
20260506033432 60 193 1.0 0.0 0.00 0.00 0.00 83 1015.9
20260506033231 60 209 0.0 0.0 0.00 0.00 0.00 83 1015.9
20260506033031 60 208 0.0 0.0 0.00 0.00 0.00 83 1015.8
20260506032839 60 167 0.0 0.0 0.00 0.00 0.00 83 1015.8
20260506032830 60 211 1.0 0.0 0.00 0.00 0.00 83 1015.8
20260506032429 60 217 1.0 0.0 0.00 0.00 0.00 83 1015.7
20260506032228 60 206 2.0 0.0 0.00 0.00 0.00 82 1015.8
20260506032028 60 199 1.0 0.0 0.00 0.00 0.00 82 1015.9
20260506031827 60 205 1.0 0.0 0.00 0.00 0.00 82 1015.8
20260506031626 60 197 1.0 0.0 0.00 0.00 0.00 82 1015.7
20260506031427 60 198 1.0 0.0 0.00 0.00 0.00 82 1015.8
20260506031226 60 194 1.0 0.0 0.00 0.00 0.00 82 1015.9
20260506031025 60 222 1.0 0.0 0.00 0.00 0.00 82 1015.7
20260506030826 60 208 1.0 0.0 0.00 0.00 0.00 82 1015.8
20260506030625 60 190 1.0 0.0 0.00 0.00 0.00 81 1015.5
20260506030424 60 192 1.0 0.0 0.00 0.00 0.00 81 1015.6
20260506030223 61 208 1.0 0.0 0.00 0.00 0.00 81 1015.7
20260506030035 61 194 2.0 0.0 0.00 0.00 0.00 80 1015.6
20260506030023 61 208 2.0 0.0 0.00 0.00 0.00 80 1015.6
20260506025831 61 200 2.0 0.0 0.00 0.00 0.00 80 1015.6
20260506025422 61 206 2.0 0.0 0.00 0.00 0.00 80 1015.6
20260506025233 61 200 2.0 0.0 0.00 0.00 0.00 80 1015.6
20260506025221 61 205 2.0 0.0 0.00 0.00 0.00 80 1015.6
20260506024820 61 173 1.0 0.0 0.00 0.00 0.00 80 1015.6
20260506024620 61 184 2.0 0.0 0.00 0.00 0.00 79 1015.6
20260506024420 61 200 2.0 0.0 0.00 0.00 0.00 79 1015.5
20260506024229 61 216 1.0 0.0 0.00 0.00 0.00 78 1015.6
20260506024219 61 222 3.0 0.0 0.00 0.00 0.00 79 1015.6
20260506023817 61 193 2.0 0.0 0.00 0.00 0.00 79 1015.5
20260506023617 61 177 2.0 0.0 0.00 0.00 0.00 78 1015.6
20260506023416 62 213 1.0 0.0 0.00 0.00 0.00 78 1015.5
20260506023217 62 229 1.0 0.0 0.00 0.00 0.00 78 1015.3
20260506023017 62 181 2.0 0.0 0.00 0.00 0.00 78 1015.4
20260506022816 62 197 1.0 0.0 0.00 0.00 0.00 78 1015.5
20260506022616 62 215 1.0 0.0 0.00 0.00 0.00 78 1015.4
20260506022416 62 189 1.0 0.0 0.00 0.00 0.00 77 1015.4
20260506022016 62 176 1.0 0.0 0.00 0.00 0.00 79 1015.7
20260506021816 62 179 1.0 0.0 0.00 0.00 0.00 78 1015.5
20260506021615 62 194 2.0 0.0 0.00 0.00 0.00 77 1015.4
20260506021414 62 181 1.0 0.0 0.00 0.00 0.00 77 1015.4
20260506021215 62 173 1.0 0.0 0.00 0.00 0.00 77 1015.5
20260506021014 62 202 2.0 0.0 0.00 0.00 0.00 78 1015.5
20260506020814 62 205 4.0 0.0 0.00 0.00 0.00 78 1015.5
20260506020614 62 173 1.0 0.0 0.00 0.00 0.00 78 1015.4
20260506020426 62 188 2.0 0.0 0.00 0.00 0.00 76 1015.4
20260506020413 62 214 1.0 0.0 0.00 0.00 0.00 77 1015.4
20260506020012 62 211 2.0 0.0 0.00 0.00 0.00 77 1015.5
20260506015812 62 230 1.0 0.0 0.00 0.00 0.00 77 1015.5
20260506015624 63 243 1.0 0.0 0.00 0.00 0.00 77 1015.4
20260506015612 62 189 1.0 0.0 0.00 0.00 0.00 77 1015.5
20260506015209 63 216 2.0 0.0 0.00 0.00 0.00 76 1015.4